GW7108 Weather Reports


time (UTC)temp
C
wind
direction
speed
KPH
gust
KPH
rain 1hr
cm
rain 24hr
cm
rain mn
cm
humidity
%
barometer
mb
20260507003025 12 227 1.6 4.8 0.00 0.00 0.00 49 1025.2
20260507002524 12 235 1.6 6.4 0.00 0.00 0.00 50 1025.2
20260507002003 12 215 1.6 6.4 0.00 0.00 0.00 50 1025.5
20260507001503 12 227 1.6 6.4 0.00 0.00 0.00 51 1025.3
20260507001003 12 227 1.6 6.4 0.00 0.00 0.00 51 1025.5
20260507000524 12 233 1.6 6.4 0.00 0.00 0.00 52 1025.4
20260507000003 12 250 3.2 4.8 0.00 0.00 0.00 52 1025.4
20260506235503 12 249 3.2 4.8 0.00 0.00 0.00 52 1025.4
20260506235003 12 235 3.2 6.4 0.00 0.00 0.00 52 1025.0
20260506234503 12 228 3.2 8.0 0.00 0.00 0.00 51 1025.4
20260506234003 12 240 3.2 8.0 0.00 0.00 0.00 51 1025.3
20260506233503 12 250 3.2 6.4 0.00 0.00 0.00 50 1025.7
20260506233003 13 237 3.2 6.4 0.00 0.00 0.00 49 1025.6
20260506232524 13 237 1.6 6.4 0.00 0.00 0.00 48 1025.6
20260506232003 13 19 1.6 4.8 0.00 0.00 0.00 48 1025.6
20260506231503 13 57 1.6 3.2 0.00 0.00 0.00 47 1025.4
20260506231003 13 139 1.6 3.2 0.00 0.00 0.00 46 1025.4
20260506230503 13 165 0.0 3.2 0.00 0.00 0.00 45 1025.6
20260506230024 13 194 1.6 4.8 0.00 0.00 0.00 45 1025.5
20260506225524 14 194 1.6 4.8 0.00 0.00 0.00 44 1025.5
20260506225003 13 196 1.6 4.8 0.00 0.00 0.00 44 1025.4
20260506224503 13 210 1.6 4.8 0.00 0.00 0.00 45 1025.4
20260506224003 13 215 1.6 3.2 0.00 0.00 0.00 45 1025.4
20260506223503 13 204 0.0 3.2 0.00 0.00 0.00 46 1025.4
20260506223003 13 337 0.0 4.8 0.00 0.00 0.00 46 1025.3
20260506222503 13 335 1.6 4.8 0.00 0.00 0.00 46 1025.2
20260506222003 13 342 1.6 4.8 0.00 0.00 0.00 46 1025.4
20260506221524 14 357 0.0 3.2 0.00 0.00 0.00 45 1025.4
20260506221003 14 138 0.0 3.2 0.00 0.00 0.00 43 1025.6
20260506220503 15 171 0.0 3.2 0.00 0.00 0.00 42 1025.2
20260506220004 15 218 1.6 3.2 0.00 0.00 0.00 42 1025.3
20260506215524 15 220 1.6 3.2 0.00 0.00 0.00 41 1025.5
20260506215003 15 182 0.0 3.2 0.00 0.00 0.00 40 1025.4
20260506214503 15 185 0.0 3.2 0.00 0.00 0.00 39 1025.5
20260506214003 16 178 0.0 3.2 0.00 0.00 0.00 39 1025.5
20260506213524 16 134 0.0 3.2 0.00 0.00 0.00 38 1025.4
20260506213003 16 89 0.0 1.6 0.00 0.00 0.00 38 1025.3
20260506212524 16 119 1.6 6.4 0.00 0.00 0.00 38 1025.4
20260506212003 16 127 3.2 8.0 0.00 0.00 0.00 38 1025.5
20260506211503 16 125 6.4 8.0 0.00 0.00 0.00 38 1025.5
20260506211003 16 124 6.4 9.7 0.00 0.00 0.00 37 1025.5
20260506210524 16 119 6.4 9.7 0.00 0.00 0.00 37 1025.4
20260506210004 16 118 4.8 8.0 0.00 0.00 0.00 37 1025.4
20260506205503 16 109 6.4 9.7 0.00 0.00 0.00 38 1025.4
20260506205003 16 104 8.0 11.3 0.00 0.00 0.00 37 1025.3
20260506204503 16 105 6.4 11.3 0.00 0.00 0.00 37 1025.3
20260506204003 16 107 4.8 9.7 0.00 0.00 0.00 37 1025.4
20260506203503 16 105 4.8 9.7 0.00 0.00 0.00 37 1025.2
20260506203003 16 105 6.4 9.7 0.00 0.00 0.00 37 1025.4
20260506202524 16 107 4.8 8.0 0.00 0.00 0.00 37 1025.4
20260506202003 16 107 4.8 8.0 0.00 0.00 0.00 37 1025.3
20260506201503 16 108 4.8 8.0 0.00 0.00 0.00 37 1025.3
20260506201003 16 105 3.2 6.4 0.00 0.00 0.00 37 1025.1
20260506200504 16 102 3.2 6.4 0.00 0.00 0.00 37 1025.1
20260506200004 16 105 3.2 6.4 0.00 0.00 0.00 37 1025.0
20260506195503 16 106 3.2 6.4 0.00 0.00 0.00 37 1025.1
20260506195003 16 109 3.2 6.4 0.00 0.00 0.00 37 1025.1
20260506194503 17 107 3.2 6.4 0.00 0.00 0.00 37 1025.0
20260506194003 17 103 4.8 9.7 0.00 0.00 0.00 37 1025.0
20260506193503 17 107 4.8 9.7 0.00 0.00 0.00 37 1024.9
20260506193003 17 117 4.8 8.0 0.00 0.00 0.00 36 1025.0
20260506192503 17 117 4.8 8.0 0.00 0.00 0.00 36 1025.0
20260506192003 17 109 4.8 9.7 0.00 0.00 0.00 36 1025.0
20260506191503 17 105 6.4 9.7 0.00 0.00 0.00 36 1025.0
20260506191003 17 108 6.4 9.7 0.00 0.00 0.00 35 1024.7
20260506190503 17 113 4.8 8.0 0.00 0.00 0.00 36 1025.1
20260506190003 18 119 4.8 8.0 0.00 0.00 0.00 35 1024.8
20260506185503 18 128 6.4 8.0 0.00 0.00 0.00 35 1024.8
20260506185003 18 129 6.4 9.7 0.00 0.00 0.00 34 1024.7
20260506184524 18 125 6.4 9.7 0.00 0.00 0.00 34 1024.8
20260506184003 18 125 6.4 9.7 0.00 0.00 0.00 34 1024.7
20260506183503 18 129 8.0 12.9 0.00 0.00 0.00 33 1025.0
20260506183005 18 132 8.0 14.5 0.00 0.00 0.00 33 1024.8
20260506182503 18 131 9.7 14.5 0.00 0.00 0.00 33 1024.6
20260506182024 18 128 9.7 16.1 0.00 0.00 0.00 33 1024.7
20260506181524 18 130 9.7 16.1 0.00 0.00 0.00 33 1024.8
20260506181003 18 130 8.0 12.9 0.00 0.00 0.00 33 1024.8
20260506180503 18 132 9.7 14.5 0.00 0.00 0.00 33 1025.0
20260506180004 18 136 9.7 14.5 0.00 0.00 0.00 33 1024.8
20260506175503 18 136 9.7 16.1 0.00 0.00 0.00 33 1024.9
20260506175024 19 134 9.7 16.1 0.00 0.00 0.00 33 1025.0
20260506174503 18 131 8.0 14.5 0.00 0.00 0.00 33 1024.8
20260506174003 18 124 6.4 9.7 0.00 0.00 0.00 33 1024.8
20260506173503 18 126 6.4 12.9 0.00 0.00 0.00 33 1025.0
20260506173024 18 137 8.0 14.5 0.00 0.00 0.00 33 1024.9
20260506172503 18 136 9.7 16.1 0.00 0.00 0.00 33 1025.1
20260506172024 18 132 9.7 16.1 0.00 0.00 0.00 32 1024.9
20260506171504 18 138 9.7 16.1 0.00 0.00 0.00 33 1025.0
20260506171003 18 138 9.7 17.7 0.00 0.00 0.00 33 1025.1
20260506170504 19 143 9.7 17.7 0.00 0.00 0.00 33 1025.1
20260506170003 19 147 9.7 20.9 0.00 0.00 0.00 33 1025.1
20260506165503 19 153 11.3 20.9 0.00 0.00 0.00 32 1025.1
20260506165003 19 152 9.7 19.3 0.00 0.00 0.00 33 1025.2
20260506164503 19 129 8.0 19.3 0.00 0.00 0.00 32 1025.1
20260506164003 19 147 6.4 14.5 0.00 0.00 0.00 32 1024.8
20260506163503 19 156 6.4 11.3 0.00 0.00 0.00 32 1025.0
20260506163003 20 143 6.4 11.3 0.00 0.00 0.00 32 1024.9
20260506162503 20 126 4.8 11.3 0.00 0.00 0.00 30 1025.0
20260506162004 20 121 6.4 14.5 0.00 0.00 0.00 30 1025.3
20260506161524 20 129 6.4 14.5 0.00 0.00 0.00 30 1025.1
20260506161003 19 126 4.8 11.3 0.00 0.00 0.00 31 1025.3
20260506160504 19 77 6.4 16.1 0.00 0.00 0.00 32 1024.9
20260506160003 19 66 6.4 16.1 0.00 0.00 0.00 32 1025.1
20260506155503 19 63 4.8 9.7 0.00 0.00 0.00 33 1025.1
20260506155003 19 169 4.8 8.0 0.00 0.00 0.00 33 1025.3
20260506154503 19 185 6.4 11.3 0.00 0.00 0.00 32 1025.4
20260506154003 19 194 6.4 11.3 0.00 0.00 0.00 33 1025.3
20260506153503 19 36 6.4 20.9 0.00 0.00 0.00 33 1025.2
20260506153003 19 50 6.4 20.9 0.00 0.00 0.00 32 1025.3
20260506152503 20 118 4.8 12.9 0.00 0.00 0.00 32 1025.6
20260506152003 19 165 4.8 14.5 0.00 0.00 0.00 32 1025.4
20260506151503 19 138 3.2 14.5 0.00 0.00 0.00 32 1025.7
20260506151003 20 30 4.8 14.5 0.00 0.00 0.00 32 1025.8
20260506150503 20 31 8.0 19.3 0.00 0.00 0.00 32 1025.6
20260506150003 20 44 8.0 20.9 0.00 0.00 0.00 31 1025.8
20260506145503 20 51 8.0 20.9 0.00 0.00 0.00 31 1026.0
20260506145003 20 52 8.0 19.3 0.00 0.00 0.00 32 1026.0
20260506144503 20 75 8.0 19.3 0.00 0.00 0.00 32 1026.1
20260506144003 20 103 9.7 19.3 0.00 0.00 0.00 32 1026.1
20260506143503 19 99 9.7 20.9 0.00 0.00 0.00 34 1026.2
20260506143003 20 98 9.7 29.0 0.00 0.00 0.00 33 1026.3
20260506142503 20 133 9.7 29.0 0.00 0.00 0.00 33 1026.4
20260506142003 19 139 6.4 17.7 0.00 0.00 0.00 33 1026.2
20260506141503 19 61 4.8 11.3 0.00 0.00 0.00 32 1026.6
20260506141024 19 108 9.7 24.1 0.00 0.00 0.00 33 1026.4
20260506140524 19 111 9.7 24.1 0.00 0.00 0.00 33 1026.5
20260506140003 19 74 4.8 12.9 0.00 0.00 0.00 33 1026.5
20260506135503 18 67 6.4 12.9 0.00 0.00 0.00 34 1026.4
20260506135003 18 64 8.0 19.3 0.00 0.00 0.00 35 1026.7
20260506134503 18 67 8.0 19.3 0.00 0.00 0.00 35 1026.6
20260506134003 17 76 8.0 17.7 0.00 0.00 0.00 36 1026.7
20260506133503 18 95 9.7 22.5 0.00 0.00 0.00 35 1026.7
20260506133003 18 109 11.3 22.5 0.00 0.00 0.00 35 1026.6
20260506132503 18 113 9.7 20.9 0.00 0.00 0.00 35 1026.8
20260506132003 18 135 8.0 16.1 0.00 0.00 0.00 35 1026.9
20260506131503 18 163 9.7 16.1 0.00 0.00 0.00 35 1026.7
20260506131003 18 166 9.7 20.9 0.00 0.00 0.00 35 1027.0
20260506130503 18 144 8.0 20.9 0.00 0.00 0.00 34 1027.1
20260506130004 19 86 4.8 12.9 0.00 0.00 0.00 33 1027.2
20260506125524 18 82 6.4 12.9 0.00 0.00 0.00 34 1027.1
20260506125003 18 98 8.0 16.1 0.00 0.00 0.00 34 1027.2
20260506124503 19 133 9.7 20.9 0.00 0.00 0.00 34 1027.4
20260506124004 18 144 8.0 20.9 0.00 0.00 0.00 35 1027.1
20260506123503 18 188 6.4 20.9 0.00 0.00 0.00 36 1027.2
20260506123003 18 270 6.4 17.7 0.00 0.00 0.00 36 1027.3
20260506122503 18 267 6.4 17.7 0.00 0.00 0.00 35 1027.4
20260506122003 18 283 4.8 12.9 0.00 0.00 0.00 36 1027.7
20260506121503 18 252 4.8 12.9 0.00 0.00 0.00 36 1027.7
20260506121003 17 205 6.4 14.5 0.00 0.00 0.00 37 1027.6
20260506120503 17 154 8.0 16.1 0.00 0.00 0.00 38 1027.9
20260506120024 17 156 8.0 16.1 0.00 0.00 0.00 38 1028.0
20260506115503 17 235 4.8 14.5 0.00 0.00 0.00 37 1027.8
20260506115024 17 358 4.8 12.9 0.00 0.00 0.00 39 1028.1
20260506114503 17 34 4.8 12.9 0.00 0.00 0.00 39 1027.7
20260506114003 17 138 6.4 14.5 0.00 0.00 0.00 39 1028.1
20260506113524 17 134 8.0 14.5 0.00 0.00 0.00 40 1027.9
20260506113003 16 124 8.0 12.9 0.00 0.00 0.00 40 1028.0
20260506112503 17 128 8.0 16.1 0.00 0.00 0.00 40 1028.1
20260506112003 17 133 8.0 16.1 0.00 0.00 0.00 41 1028.1
20260506111503 17 114 8.0 17.7 0.00 0.00 0.00 41 1028.1
20260506111003 17 104 6.4 17.7 0.00 0.00 0.00 40 1028.0
20260506110504 17 126 8.0 17.7 0.00 0.00 0.00 41 1028.3
20260506110003 17 119 11.3 17.7 0.00 0.00 0.00 41 1028.3
20260506105503 17 96 8.0 16.1 0.00 0.00 0.00 41 1028.0
20260506105003 16 109 8.0 17.7 0.00 0.00 0.00 43 1028.2
20260506104503 17 137 9.7 19.3 0.00 0.00 0.00 41 1028.2
20260506104003 17 153 8.0 19.3 0.00 0.00 0.00 41 1028.4
20260506103503 17 153 4.8 12.9 0.00 0.00 0.00 40 1028.2
20260506103003 17 136 6.4 17.7 0.00 0.00 0.00 42 1028.4
20260506102503 16 124 6.4 17.7 0.00 0.00 0.00 43 1028.3
20260506102003 16 70 6.4 14.5 0.00 0.00 0.00 43 1028.5
20260506101524 16 84 6.4 14.5 0.00 0.00 0.00 44 1028.4
20260506101003 16 125 8.0 17.7 0.00 0.00 0.00 43 1028.6
20260506100503 16 157 9.7 17.7 0.00 0.00 0.00 44 1028.7
20260506100003 16 170 9.7 17.7 0.00 0.00 0.00 46 1028.4
20260506095503 16 142 9.7 20.9 0.00 0.00 0.00 45 1028.6
20260506095024 16 117 8.0 22.5 0.00 0.00 0.00 46 1028.6
20260506094503 15 127 8.0 22.5 0.00 0.00 0.00 46 1028.5
20260506094003 15 143 11.3 22.5 0.00 0.00 0.00 48 1028.5
20260506093503 15 131 11.3 22.5 0.00 0.00 0.00 47 1028.5
20260506093003 15 107 8.0 19.3 0.00 0.00 0.00 48 1028.4
20260506092503 16 133 8.0 16.1 0.00 0.00 0.00 48 1028.4
20260506092003 15 143 9.7 22.5 0.00 0.00 0.00 50 1028.5
20260506091503 15 130 9.7 22.5 0.00 0.00 0.00 49 1028.2
20260506091003 15 121 8.0 16.1 0.00 0.00 0.00 50 1028.3
20260506090503 15 132 8.0 16.1 0.00 0.00 0.00 50 1028.4
20260506090024 15 135 9.7 20.9 0.00 0.00 0.00 50 1028.2
20260506085524 15 125 9.7 20.9 0.00 0.00 0.00 49 1028.3
20260506085024 15 123 8.0 14.5 0.00 0.00 0.00 49 1028.4
20260506084503 15 119 6.4 14.5 0.00 0.00 0.00 49 1028.5
20260506084003 15 131 8.0 17.7 0.00 0.00 0.00 50 1028.2
20260506083503 14 147 9.7 19.3 0.00 0.00 0.00 50 1028.4
20260506083003 15 157 6.4 19.3 0.00 0.00 0.00 50 1028.5
20260506082504 15 150 4.8 16.1 0.00 0.00 0.00 49 1028.4
20260506082003 15 143 3.2 8.0 0.00 0.00 0.00 49 1028.3
20260506081503 15 207 1.6 8.0 0.00 0.00 0.00 51 1028.3
20260506081003 15 170 3.2 9.7 0.00 0.00 0.00 50 1028.7
20260506080504 14 141 4.8 9.7 0.00 0.00 0.00 52 1028.5
20260506073504 13 142 4.8 9.7 0.00 0.00 0.00 54 1028.4
20260506073003 13 144 4.8 9.7 0.00 0.00 0.00 55 1028.4
20260506072503 12 162 4.8 9.7 0.00 0.00 0.00 57 1028.4
20260506072003 12 162 6.4 9.7 0.00 0.00 0.00 58 1028.5
20260506071503 12 162 4.8 9.7 0.00 0.00 0.00 59 1028.5
20260506071003 12 166 6.4 11.3 0.00 0.00 0.00 59 1028.6
20260506070503 12 160 6.4 11.3 0.00 0.00 0.00 59 1028.4
20260506062503 10 189 4.8 9.7 0.00 0.00 0.00 64 1028.3
20260506062003 11 167 4.8 8.0 0.00 0.00 0.00 63 1028.3
20260506061524 10 165 4.8 8.0 0.00 0.00 0.00 64 1028.4
20260506061003 10 158 3.2 8.0 0.00 0.00 0.00 64 1028.2
20260506060503 10 137 3.2 8.0 0.00 0.00 0.00 62 1028.3
20260506051003 8 104 6.4 14.5 0.00 0.00 0.00 68 1028.3
20260506050503 8 100 9.7 16.1 0.00 0.00 0.00 68 1028.3
20260506045004 9 97 8.0 20.9 0.00 0.00 0.00 67 1028.2
20260506044503 8 104 9.7 19.3 0.00 0.00 0.00 68 1027.9
20260506044003 8 113 9.7 17.7 0.00 0.00 0.00 67 1028.0
20260506043503 8 129 9.7 17.7 0.00 0.00 0.00 68 1027.9
20260506043024 8 124 9.7 14.5 0.00 0.00 0.00 69 1028.1
20260506042524 8 129 8.0 14.5 0.00 0.00 0.00 69 1028.2
20260506042003 8 144 9.7 16.1 0.00 0.00 0.00 69 1028.0
20260506041503 8 145 9.7 16.1 0.00 0.00 0.00 69 1027.9
20260506041003 8 148 9.7 14.5 0.00 0.00 0.00 69 1028.1
20260506040503 8 148 9.7 16.1 0.00 0.00 0.00 69 1028.2
20260506040003 8 143 9.7 16.1 0.00 0.00 0.00 69 1028.1
20260506035503 8 149 9.7 16.1 0.00 0.00 0.00 70 1028.2
20260506035003 8 155 11.3 16.1 0.00 0.00 0.00 71 1028.0
20260506034503 8 155 9.7 14.5 0.00 0.00 0.00 70 1028.0
20260506034003 8 154 8.0 14.5 0.00 0.00 0.00 70 1028.1
20260506033503 8 153 9.7 16.1 0.00 0.00 0.00 69 1028.3
20260506033003 8 153 9.7 16.1 0.00 0.00 0.00 69 1028.2
20260506032503 8 159 9.7 17.7 0.00 0.00 0.00 69 1028.4
20260506032003 8 160 11.3 17.7 0.00 0.00 0.00 68 1028.4
20260506031503 8 152 9.7 16.1 0.00 0.00 0.00 67 1028.4
20260506031003 9 143 9.7 16.1 0.00 0.00 0.00 67 1028.5
20260506030503 9 145 9.7 17.7 0.00 0.00 0.00 67 1028.4
20260506030003 9 150 9.7 17.7 0.00 0.00 0.00 67 1028.2
20260506025503 8 153 9.7 14.5 0.00 0.00 0.00 68 1028.3
20260506025003 8 159 9.7 14.5 0.00 0.00 0.00 68 1028.1
20260506024503 8 160 6.4 12.9 0.00 0.00 0.00 68 1028.2
20260506024003 8 154 4.8 8.0 0.00 0.00 0.00 68 1028.3
20260506023503 9 149 6.4 9.7 0.00 0.00 0.00 66 1028.4
20260506023003 9 144 8.0 12.9 0.00 0.00 0.00 65 1028.4
20260506022503 9 139 9.7 12.9 0.00 0.00 0.00 65 1028.3
20260506022003 9 133 9.7 12.9 0.00 0.00 0.00 65 1028.4
20260506021503 9 124 8.0 12.9 0.00 0.00 0.00 65 1028.3
20260506021003 10 121 8.0 11.3 0.00 0.00 0.00 65 1028.6
20260506020524 10 121 9.7 14.5 0.00 0.00 0.00 64 1028.2
20260506020003 10 124 8.0 14.5 0.00 0.00 0.00 64 1028.1
20260506015503 10 121 8.0 12.9 0.00 0.00 0.00 65 1028.3
20260506015003 10 116 6.4 11.3 0.00 0.00 0.00 64 1028.1
20260506014503 10 116 8.0 11.3 0.00 0.00 0.00 64 1028.4
20260506014003 10 116 6.4 11.3 0.00 0.00 0.00 63 1028.3
20260506013524 10 112 8.0 11.3 0.00 0.00 0.00 63 1028.5
20260506013024 10 113 8.0 11.3 0.00 0.00 0.00 62 1028.5
20260506012503 10 118 8.0 11.3 0.00 0.00 0.00 62 1028.5
20260506012003 10 117 6.4 9.7 0.00 0.00 0.00 62 1028.5
20260506011524 10 117 6.4 9.7 0.00 0.00 0.00 62 1028.3
20260506011003 10 119 4.8 8.0 0.00 0.00 0.00 62 1028.5
20260506010503 10 115 4.8 8.0 0.00 0.00 0.00 62 1028.5
20260506010003 10 109 4.8 8.0 0.00 0.00 0.00 62 1028.5
20260506005503 10 104 4.8 8.0 0.00 0.00 0.00 61 1028.6
20260506005003 10 104 4.8 9.7 0.00 0.00 0.00 61 1028.8
20260506004504 11 112 6.4 9.7 0.00 0.00 0.00 60 1028.5
20260506004003 11 114 4.8 8.0 0.00 0.00 0.00 60 1028.9
20260506003503 11 107 4.8 8.0 0.00 0.00 0.00 60 1028.7